Regional Weather Roundup
Issued by NWS New Orleans/Baton Rouge, LA

Home | Current Version | Previous Version | Text Only | Print | Product List | Glossary On
Versions: 1 2 3 4 5 6 7 8 9 10 11 12 13 14 15 16 17 18 19 20 21 22 23 24 25 26 27
000
ASUS44 KLIX 180413
RWRLIX
NEW ORLEANS REGIONAL WEATHER ROUNDUP
NATIONAL WEATHER SERVICE NEW ORLEANS LA
1000 PM CST TUE JAN 17 2017

NOTE: "FAIR" INDICATES FEW OR NO CLOUDS BELOW 12,000 FEET WITH NO
      SIGNIFICANT WEATHER AND/OR OBSTRUCTIONS TO VISIBILITY.
      SKY/WX - SKY CONDITION AND SIGNIFICANT WEATHER.
      TMP - AIR TEMPERATURE.     DP    - DEWPOINT TEMPERATURE.
      RH  - RELATIVE HUMIDITY.   PRES  - PRESSURE.
      HI  - HEAT INDEX.          WCI   - WIND CHILL INDEX.

*  THESE STATIONS ARE NOT NWS OR FAA STATIONS AND ARE NOT UNDER
   NWS QUALITY CONTROL.

LAZ038-040-048-061>063-065>067-069-180500-
SOUTHEAST LOUISIANA

CITY           SKY/WX    TMP DP  RH WIND       PRES   REMARKS
N.O. AUDUBON   NOT AVBL
N.O. INTL ARPT MOCLDY    68  67  96 SE7       30.15S
N.O. LAKEFRONT PTCLDY    67  67 100 SE6       30.16S
N.O. DOWNTOWN*   N/A     70  68  93 S6        30.16S
RESERVE*         N/A     68  66  94 SE5       30.14S
SLIDELL        CLEAR     64  63  96 S5        30.15S
BATON ROUGE    PTCLDY    66  63  90 E3        30.13F
BOOTHVILLE     FOG       61  61 100 SE3       30.18S VSB 1/2
BELLE CHASSE   MOCLDY    68  68 100 SE6       30.15S
BOGALUSA*        N/A     68  63  84 S5        30.17S
GALLIANO*      PTCLDY    69  66  91 SE3       30.15S FOG
NEW ROADS*       N/A     64  62  94 SE3       30.13F
GONZALES*        N/A     67  65  91 CALM      30.14R
HAMMOND*       PTCLDY    63  59  88 CALM      30.15S
HOUMA*         CLOUDY    65  65  99 SE7       30.14F FOG
PORT FOURCHON* CLOUDY    68  68 100 E9        30.15F

$$

MSZ070-080>082-180500-
SOUTHERN MISSISSIPPI

CITY           SKY/WX    TMP DP  RH WIND       PRES   REMARKS
MCCOMB         PTCLDY    65  61  87 S3        30.15R
GULFPORT       CLOUDY    67  67 100 S6        30.16S FOG
BILOXI         FOG       66  66 100 S6        30.17S VSB 3/4
PASCAGOULA     FOG       67  66  97 SE3       30.18R VSB 1/4

$$

COASTAL OBSERVATIONS
LAKE AND NEARSHORE STATIONS

STATION/POSITION TIME  TEMP    WIND        PRES    WAVE
                       AIR SEA DIR/SP/G            HT/PER
                 (UTC) (F)     (DEG/KT/KT) (MB)    (FT/S)
PASCAGOULA       0348   67     150/  8/ 10 1021.5
WAVELAND YACHT   0348   64 60  160/  5/  7 1021.5
GRAND ISLE       0348   67 67  140/  5/  8 1021.3
SOUTHWEST PASS   0348          120/ 10/ 12   N/A
NEW CANAL        0348   69 58  140/  3/  4 1020.2
SHELL BEACH      0336   66 66  120/  5/  6 1021.4

OFFSHORE STATIONS

STATION/POSITION TIME  TEMP    WIND        PRES    WAVE
                       AIR SEA DIR/SP/G            HT/PER
                 (UTC) (F)     (DEG/KT/KT) (MB)    (FT/S)

$$





USA.gov is the U.S. government's official web portal to all federal, state and local government web resources and services.